Wind_Speed
33 36 38 38 39 41 44 45 46 46 48 49 49 48 48 49 50 51 52 53 53 52 49 49 49 49 49 48 47 47 46 46 46 45 44 43 43 42 40 39 39 38 36 35
31 33 33 35 38 39 41 43 44 44 45 46 46 47 47 48 48 49 49 50 51 52 51 49 49 48 49 48 48 48 47 47 47 47 47 46 45 43 42 41 40 39 38 37
27 31 31 32 35 37 39 39 41 41 42 43 44 46 46 47 47 47 47 47 48 50 51 50 49 48 48 48 48 49 49 48 48 48 48 48 47 46 44 43 42 41 40 40
25 29 30 30 31 34 36 36 38 39 40 42 43 44 44 45 45 45 45 45 46 47 48 49 50 49 49 48 48 49 49 48 49 50 50 49 48 47 45 44 43 43 42 42
23 26 27 28 29 32 32 33 34 37 38 39 41 43 42 42 43 42 42 43 44 45 46 46 47 48 49 49 49 49 49 49 49 50 50 49 49 48 47 45 44 44 44 43
19 22 24 26 28 30 30 30 31 34 37 38 38 40 39 39 39 40 40 41 42 43 45 45 46 47 48 48 49 49 49 50 50 50 49 49 49 48 48 47 47 46 46 45
17 20 23 26 27 29 29 28 29 32 36 37 36 38 37 35 36 37 38 39 40 42 43 44 45 46 47 48 48 49 49 50 51 51 51 50 50 50 49 48 48 47 47 46
15 18 22 24 25 26 28 27 28 30 33 34 35 36 34 33 34 35 37 38 38 40 41 42 44 45 47 48 49 49 50 50 50 51 51 51 51 51 50 49 49 48 47 47
12 16 20 22 24 25 27 26 25 27 30 31 32 33 32 32 32 34 36 37 37 37 39 40 42 43 45 46 48 49 50 50 51 51 51 51 51 51 51 51 50 50 49 49
11 15 18 20 22 24 26 25 24 24 26 28 29 29 29 29 31 32 34 35 36 36 38 39 40 41 43 44 46 48 49 50 51 51 51 51 51 51 51 50 50 49 50 50
10 14 17 19 20 21 23 25 25 24 25 25 26 26 25 26 28 30 32 33 35 36 37 38 39 41 42 43 44 46 47 48 49 49 50 51 51 51 51 51 50 50 50 50
10 12 14 17 18 20 22 23 24 25 25 25 25 24 24 24 26 27 28 29 32 34 36 38 39 40 41 42 43 44 45 46 47 48 49 49 50 51 51 51 50 50 50 50
9 11 13 15 17 19 21 22 22 23 24 25 25 23 23 23 23 26 27 28 29 31 34 36 37 39 40 41 42 42 43 44 45 46 47 47 48 49 50 50 49 49 48 48
9 11 13 15 16 18 20 22 22 22 23 23 22 21 21 22 23 25 27 28 29 30 31 33 35 37 38 39 40 41 41 42 43 43 44 45 45 46 46 47 47 47 46 46
10 11 13 15 16 18 20 21 23 22 22 23 21 21 21 23 24 25 25 26 28 29 30 32 33 35 36 37 38 39 39 40 40 41 41 42 42 43 43 44 44 44 44 44
11 12 14 15 17 18 19 20 21 22 22 22 22 20 21 24 25 25 25 25 26 27 29 31 32 33 34 35 36 36 37 38 38 39 39 39 40 40 41 41 42 42 42 42
13 14 14 15 17 19 19 19 20 21 21 22 22 20 23 24 25 25 25 25 26 27 28 29 30 31 32 33 34 34 35 36 36 37 37 38 38 38 39 40 40 41 41 41
14 15 15 16 17 18 17 18 19 19 20 22 22 21 23 24 24 24 25 26 26 27 28 28 29 29 30 31 32 33 33 33 34 35 35 35 36 36 37 37 38 38 38 38
15 16 17 17 18 17 17 17 17 18 18 19 20 20 21 23 23 23 24 25 26 26 27 27 28 28 29 29 29 30 30 31 32 32 33 33 33 33 34 34 34 34 34 34
16 17 17 17 18 17 16 17 17 17 18 18 19 19 20 21 21 22 23 24 24 24 25 25 25 26 26 26 27 27 28 29 29 29 30 30 30 30 30 31 31 31 31 32
15 17 17 17 18 18 17 17 17 17 17 18 18 19 19 19 20 21 21 22 23 23 23 23 23 24 24 24 25 25 25 26 26 26 27 27 28 28 28 29 29 29 30 30
15 16 17 18 18 17 17 17 18 18 18 18 18 19 19 19 19 19 19 20 21 22 22 22 22 22 23 23 23 23 23 24 24 24 25 25 26 26 27 28 28 28 28 28
15 16 16 17 18 17 17 17 18 18 18 18 18 19 19 19 19 18 18 19 19 20 21 22 22 22 22 22 22 22 23 23 23 24 24 25 25 26 26 27 27 27 27 27
17 16 17 17 17 18 18 18 18 18 18 18 18 19 19 19 19 19 19 19 19 20 20 21 21 22 22 22 22 22 22 23 24 25 25 25 25 26 26 26 26 26 27 27
18 17 17 18 18 18 19 19 19 19 19 19 18 18 19 19 20 20 21 21 21 21 21 22 22 22 22 22 23 23 23 23 23 24 24 25 25 25 25 25 25 25 26 26
18 19 19 19 19 20 20 20 20 20 19 20 19 19 19 20 20 20 21 21 22 23 23 23 23 23 24 24 24 24 24 24 23 23 23 23 24 24 25 25 25 25 25 26
Wind_Direction
200 201 202 204 208 211 212 214 216 217 219 220 221 220 221 222 224 225 226 227 228 228 229 230 231 232 232 233 234 235 235 236 237 238 239 242 245 247 249 253 257 260 262 265
197 197 198 202 206 209 209 211 213 215 217 219 220 220 221 222 223 225 227 228 229 230 231 232 233 233 234 235 236 236 236 236 236 237 238 240 243 246 248 252 255 258 261 263
195 195 196 200 205 207 207 209 212 215 217 219 219 221 221 222 224 225 227 229 231 232 233 234 234 235 236 236 236 236 236 237 238 238 239 240 243 245 249 251 254 256 259 261
194 195 197 199 202 204 205 207 212 214 218 220 221 222 221 223 225 226 227 229 232 233 234 236 236 237 238 238 237 238 238 238 239 240 241 242 243 245 247 250 252 254 257 260
189 194 198 198 199 201 203 205 211 215 218 220 221 224 222 225 226 226 227 228 230 233 235 236 237 238 239 240 240 239 240 241 241 242 242 243 244 245 246 249 251 254 257 260
189 192 196 196 196 198 200 203 210 215 219 221 221 225 222 225 227 228 228 229 230 232 234 236 237 239 240 241 242 242 242 242 243 243 244 244 245 246 247 249 252 254 257 259
191 192 194 194 195 196 199 203 209 215 219 222 222 225 223 224 227 229 231 232 232 234 234 236 237 239 240 240 242 243 243 244 244 245 245 246 247 248 249 250 253 255 257 259
187 190 192 192 195 198 200 205 212 218 221 223 223 226 226 226 227 229 231 233 235 235 236 237 238 239 240 240 241 242 244 245 245 247 248 248 250 250 250 252 254 255 257 260
194 195 195 196 197 202 202 205 211 219 223 224 225 227 228 228 229 230 231 233 236 237 238 238 238 239 240 241 242 243 244 245 246 247 248 249 251 251 251 252 254 256 257 259
204 198 197 200 201 203 206 208 212 218 224 226 225 226 228 228 229 231 233 234 236 238 239 240 240 241 241 242 243 244 245 246 247 248 248 249 250 252 252 254 255 257 258 260
208 204 204 205 206 208 210 212 216 221 225 226 226 226 227 230 230 231 234 236 237 239 239 240 241 242 243 244 245 246 247 248 249 249 249 250 250 251 252 254 256 257 259 261
215 214 209 208 211 212 211 212 216 222 226 228 229 227 228 231 231 232 234 237 239 240 241 242 243 243 244 246 247 248 249 249 249 250 251 251 251 251 253 254 256 258 260 262
219 220 218 219 219 218 218 216 219 223 227 230 232 230 230 231 233 235 237 238 240 241 242 243 244 245 246 247 248 250 251 251 251 251 252 253 253 254 254 255 257 259 261 263
238 230 226 225 223 222 222 222 223 227 231 234 236 233 233 234 236 237 238 241 241 243 244 245 245 246 246 248 249 250 251 252 252 252 253 254 255 255 256 257 258 260 262 264
243 236 232 227 226 226 224 226 229 234 238 241 238 236 234 237 239 240 243 244 245 245 246 246 247 248 248 249 249 250 252 252 252 253 254 255 256 257 258 258 260 261 263 265
244 242 237 234 233 234 233 234 238 241 241 241 242 242 240 241 242 243 245 247 247 247 248 249 249 249 249 250 250 251 252 253 253 253 254 255 256 258 258 259 260 261 263 264
250 246 244 243 240 240 241 240 243 244 241 242 243 242 242 245 247 247 247 249 250 251 252 252 251 251 251 251 251 252 253 253 254 254 254 255 257 258 258 259 260 261 262 263
253 250 250 248 245 245 245 245 245 244 244 244 246 246 244 246 248 249 251 251 252 253 253 253 253 252 252 252 251 252 253 253 254 255 255 256 257 257 258 259 259 260 262 263
250 249 249 249 249 246 244 247 247 247 245 246 246 244 245 247 249 251 251 252 253 253 253 253 253 251 252 252 252 252 252 253 254 255 255 256 257 257 257 258 259 260 261 263
250 246 246 248 250 249 246 246 247 248 247 246 246 244 245 248 250 251 251 252 252 251 252 253 252 252 252 251 252 253 253 253 254 254 254 255 256 257 257 258 259 260 261 263
256 249 246 248 250 249 246 247 247 248 247 245 245 247 249 250 251 253 253 251 249 250 251 251 251 250 251 251 251 251 252 252 253 254 254 255 256 257 258 259 260 261 262 263
261 254 249 250 251 251 249 248 248 248 247 247 247 248 249 251 252 253 252 251 250 250 250 249 249 249 250 250 251 251 252 253 253 254 255 256 257 259 260 261 261 262 263 264
260 253 252 251 251 251 251 249 248 247 247 247 248 250 250 252 253 253 252 252 252 252 251 250 250 250 251 251 252 253 253 254 255 256 257 259 260 262 262 262 262 262 263 264
256 252 251 250 249 249 249 248 247 246 246 248 251 251 250 251 253 254 254 255 256 255 253 251 251 252 253 254 254 255 257 257 258 259 260 261 262 263 263 263 263 263 264 264
255 251 251 251 250 249 248 249 248 249 249 251 252 253 253 253 254 255 255 255 255 256 256 255 254 255 256 257 256 258 259 260 261 262 262 262 263 263 263 263 263 265 265 266
253 252 252 251 251 251 249 249 249 250 251 252 252 253 255 255 255 255 256 257 257 257 257 257 257 258 259 259 260 262 262 262 263 262 262 263 264 264 263 263 264 266 267 267
Height
5592 5601 5608 5617 5625 5634 5641 5649 5657 5665 5672 5679 5687 5695 5702 5708 5714 5722 5728 5735 5742 5749 5755 5761 5767 5772 5777 5782 5787 5792 5795 5799 5803 5806 5809 5812 5815 5817 5820 5821 5823 5824 5826 5827
5591 5598 5606 5613 5621 5628 5636 5644 5652 5659 5666 5673 5680 5687 5694 5700 5707 5715 5721 5728 5735 5741 5747 5753 5759 5764 5769 5774 5779 5783 5787 5791 5794 5798 5801 5804 5807 5809 5812 5813 5815 5817 5818 5819
5589 5597 5603 5610 5617 5625 5633 5641 5648 5655 5661 5666 5674 5680 5688 5695 5701 5708 5715 5721 5727 5734 5739 5745 5750 5756 5761 5765 5770 5774 5778 5782 5785 5788 5792 5795 5798 5801 5804 5806 5807 5808 5810 5811
5589 5595 5602 5608 5615 5622 5630 5637 5643 5649 5655 5661 5668 5674 5683 5689 5695 5702 5709 5715 5721 5727 5731 5736 5742 5747 5752 5757 5761 5765 5769 5773 5776 5779 5783 5786 5789 5793 5795 5797 5798 5800 5801 5802
5590 5595 5601 5607 5613 5620 5627 5633 5639 5645 5650 5656 5662 5669 5678 5683 5689 5697 5703 5708 5714 5718 5723 5728 5733 5738 5743 5747 5752 5756 5760 5763 5767 5770 5774 5777 5780 5783 5786 5788 5789 5791 5793 5794
5590 5595 5600 5606 5612 5618 5624 5630 5635 5640 5645 5651 5658 5664 5673 5678 5685 5691 5696 5701 5705 5710 5714 5719 5724 5729 5734 5738 5743 5747 5751 5754 5758 5761 5764 5768 5771 5773 5776 5778 5780 5782 5783 5784
5591 5595 5600 5605 5610 5616 5622 5628 5633 5636 5640 5647 5654 5658 5668 5675 5679 5684 5689 5693 5697 5701 5706 5711 5715 5720 5725 5729 5733 5737 5741 5745 5748 5751 5754 5757 5761 5763 5766 5768 5770 5772 5774 5775
5593 5596 5600 5605 5610 5614 5620 5625 5631 5635 5639 5645 5649 5654 5664 5669 5673 5677 5681 5685 5690 5694 5699 5703 5707 5711 5715 5719 5723 5727 5731 5735 5738 5741 5744 5747 5750 5753 5756 5758 5760 5762 5764 5765
5594 5597 5601 5604 5609 5613 5617 5622 5628 5632 5636 5641 5645 5652 5658 5663 5667 5671 5675 5679 5683 5687 5691 5695 5699 5702 5706 5710 5713 5717 5721 5724 5728 5731 5734 5737 5740 5742 5745 5747 5749 5751 5753 5754
5596 5598 5601 5604 5607 5611 5616 5620 5625 5629 5633 5637 5642 5647 5653 5658 5661 5665 5669 5672 5676 5680 5683 5687 5690 5694 5697 5700 5704 5707 5710 5714 5717 5721 5724 5727 5729 5732 5734 5737 5739 5740 5742 5743
5597 5599 5602 5604 5607 5611 5615 5619 5622 5626 5630 5634 5638 5646 5648 5652 5655 5659 5662 5666 5669 5672 5676 5679 5682 5685 5688 5691 5695 5698 5701 5704 5707 5710 5713 5716 5719 5721 5723 5726 5728 5729 5731 5732
5598 5600 5601 5604 5607 5609 5613 5616 5620 5624 5628 5631 5635 5643 5643 5647 5650 5653 5656 5659 5662 5665 5668 5671 5674 5676 5679 5682 5685 5688 5691 5694 5697 5699 5702 5705 5707 5710 5712 5714 5716 5718 5719 5721
5599 5601 5602 5604 5608 5609 5611 5614 5618 5621 5624 5627 5631 5638 5639 5642 5644 5647 5650 5653 5655 5658 5660 5663 5665 5668 5671 5674 5676 5679 5682 5684 5687 5689 5692 5694 5697 5699 5701 5703 5705 5707 5708 5710
5598 5600 5602 5604 5605 5607 5610 5613 5615 5618 5620 5623 5627 5632 5635 5637 5639 5641 5644 5646 5648 5651 5653 5655 5658 5660 5663 5665 5668 5670 5672 5675 5677 5679 5682 5684 5686 5688 5690 5692 5694 5696 5698 5699
5597 5599 5600 5602 5603 5605 5607 5610 5612 5615 5617 5620 5623 5626 5630 5631 5633 5636 5638 5640 5642 5644 5646 5648 5650 5652 5654 5657 5659 5661 5663 5666 5668 5670 5672 5674 5676 5678 5680 5682 5684 5686 5687 5689
5596 5597 5598 5600 5601 5603 5605 5607 5609 5612 5614 5616 5619 5622 5624 5625 5627 5630 5632 5634 5636 5638 5639 5641 5643 5645 5647 5648 5651 5653 5655 5657 5659 5661 5663 5665 5667 5668 5670 5672 5674 5676 5677 5678
5594 5595 5596 5597 5599 5600 5603 5605 5606 5608 5610 5612 5614 5618 5618 5620 5622 5624 5626 5628 5630 5631 5633 5634 5636 5637 5639 5641 5643 5644 5646 5648 5650 5652 5654 5656 5658 5659 5661 5662 5664 5666 5667 5668
5591 5592 5593 5594 5596 5597 5602 5601 5602 5604 5606 5607 5609 5611 5613 5615 5617 5619 5620 5622 5623 5625 5626 5628 5629 5630 5632 5633 5635 5637 5638 5640 5642 5644 5645 5647 5649 5650 5651 5653 5654 5656 5657 5658
5587 5588 5589 5591 5592 5594 5597 5598 5598 5600 5602 5603 5604 5606 5608 5609 5611 5613 5614 5616 5617 5618 5619 5621 5622 5623 5625 5626 5628 5629 5631 5632 5634 5635 5637 5638 5640 5641 5642 5644 5645 5646 5648 5649
5583 5584 5586 5587 5588 5590 5594 5594 5594 5597 5598 5599 5600 5602 5603 5604 5606 5608 5608 5610 5611 5612 5613 5614 5616 5617 5618 5620 5621 5623 5624 5625 5627 5628 5629 5631 5632 5633 5634 5635 5637 5638 5639 5640
5580 5580 5582 5583 5584 5586 5589 5589 5591 5594 5595 5595 5596 5597 5599 5600 5601 5602 5603 5604 5605 5606 5608 5609 5610 5611 5612 5614 5615 5616 5617 5618 5620 5621 5622 5623 5625 5626 5627 5628 5629 5630 5630 5631
5576 5576 5578 5579 5580 5584 5584 5585 5587 5588 5589 5590 5591 5593 5594 5595 5596 5597 5598 5599 5600 5601 5602 5603 5604 5605 5607 5608 5609 5610 5611 5612 5613 5614 5615 5617 5618 5619 5619 5620 5621 5622 5623 5623
5571 5573 5573 5575 5578 5578 5579 5580 5581 5583 5584 5585 5587 5588 5589 5590 5591 5592 5593 5594 5595 5596 5597 5598 5599 5600 5601 5602 5603 5604 5605 5606 5607 5608 5609 5610 5611 5611 5612 5613 5613 5614 5615 5615
5567 5568 5569 5570 5572 5573 5574 5575 5577 5578 5579 5580 5582 5583 5584 5585 5586 5587 5588 5589 5590 5591 5591 5592 5594 5594 5595 5596 5597 5598 5599 5600 5601 5602 5602 5603 5604 5604 5605 5605 5606 5607 5607 5608
5562 5563 5564 5565 5567 5568 5569 5571 5572 5573 5574 5575 5577 5578 5579 5580 5581 5582 5583 5584 5584 5585 5586 5587 5588 5589 5590 5590 5591 5592 5593 5593 5594 5595 5595 5596 5597 5597 5598 5598 5599 5599 5600 5600
5558 5558 5559 5560 5562 5563 5564 5565 5566 5568 5569 5570 5571 5572 5573 5574 5575 5576 5577 5578 5579 5579 5580 5581 5582 5583 5583 5584 5585 5586 5586 5587 5588 5588 5589 5589 5589 5590 5590 5591 5592 5592 5592 5593